[[{"header":{"parameterUnit":"m.s-1","parameterCategory":1,"la1":30.2992,"la2":30.254,"lo1":-89.0895,"lo2":-89.0443,"dy":0.0025,"dx":0.0025,"nx":19,"ny":19,"refTime":"2026-05-05T21:00:00:Z","depth":0,"parameterNumber":2,"parameterNumberName":"U-component_of_WINDS"},"data":[0,0,0,4.3076,4.3079,4.3205,4.3206,4.3382,4.3384,0,0,0,0,0,0,0,0,0,0,0,4.3048,4.3049,4.3076,4.3079,4.3205,4.3206,4.3382,4.3384,0,0,0,0,0,0,0,0,0,0,0,4.3047,4.3049,4.3051,4.308,4.3205,4.3206,4.3381,4.3281,0,0,0,0,0,0,0,0,0,0,4.3155,4.3139,4.3049,4.3051,4.308,4.3205,4.3206,4.3276,4.3287,4.3331,0,4.3373,0,4.3382,4.3396,4.3397,0,0,0,4.3072,4.3129,4.3155,4.3051,4.3082,4.3205,4.3146,4.3282,4.3295,4.3346,4.3376,4.3382,4.3384,4.3398,4.3399,4.3678,4.3679,0,0,4.3065,4.3076,4.3146,4.3164,4.3146,4.3142,4.315,4.3289,4.3322,4.3376,4.3386,4.3387,4.3399,4.34,4.3676,4.3678,0,0,0,4.305,4.3071,4.3093,4.3157,4.3179,4.3146,4.3155,4.3316,4.3322,4.3388,4.3389,4.34,4.3402,4.3674,4.3677,4.3767,0,0,0,4.3045,4.3062,4.309,4.3098,4.3176,4.3249,4.3179,4.3312,4.3328,4.3389,4.34,4.3404,4.3673,4.3676,4.3761,4.3808,0,0,0,4.3037,4.3061,4.3082,4.3098,4.3153,4.3246,4.326,4.3315,4.3329,4.3397,4.3405,4.3671,4.3675,4.3755,4.3798,4.3883,0,0,0,4.303,4.3161,4.3084,4.3232,4.3152,4.3302,4.3259,4.337,4.3439,4.3401,4.3673,4.3677,4.3753,4.3793,4.3877,4.3956,4.399,0,0,4.3202,4.3182,4.3268,4.3203,4.3369,4.3281,4.3461,4.3514,4.3511,4.3622,4.3629,4.3763,4.3798,4.3882,4.4179,4.4206,0,0,0,4.3326,4.3388,4.343,4.3496,4.354,4.3581,4.3606,4.3626,4.372,4.3571,4.3817,4.3837,4.3886,4.3923,4.3946,4.3987,4.3695,4.3694,4.3694,4.3583,4.3572,4.3713,4.3717,4.3782,4.3807,4.3858,4.3888,4.3859,4.3917,4.395,4.4131,4.4175,4.4192,4.4235,4.3991,4.3992,4.3992,4.3992,4.3833,4.3917,4.3875,4.3996,4.3983,4.4085,4.4114,4.4089,4.4181,4.4106,4.4149,4.4066,4.4222,4.4259,4.3999,4.3998,4.3997,4.3996,4.3996,4.3999,4.4037,4.4059,4.4153,4.4228,4.4227,4.4318,4.4304,4.4291,4.4333,4.4365,4.4363,4.4359,4.4349,4.435,4.4351,4.4351,4.4352,4.4352,4.4162,4.4183,4.4262,4.4319,4.436,4.4411,4.4437,4.4476,4.4516,4.4498,4.4498,4.4462,4.424,4.4184,4.4362,4.436,4.4359,4.4358,4.4357,4.4416,4.4356,4.4477,4.4517,4.4584,4.4657,4.4638,4.4719,4.475,4.4795,4.475,4.4589,4.4568,4.455,4.4503,4.4752,4.4752,4.4752,4.4752,4.4555,4.4543,4.4663,4.4729,4.4791,4.4786,4.4922,4.4944,4.4956,4.4974,4.4936,4.4874,4.4856,4.4845,4.4821,4.4777,4.509,4.5091,4.5091,4.471,4.4704,4.4822,4.4834,4.4885,4.4929,4.5056,4.5132,4.5135,4.5104,4.4988,4.4973,4.4872,4.484,4.4806,4.4768,4.4687,0,0]},{"header":{"parameterUnit":"m.s-1","parameterCategory":1,"la1":30.2992,"la2":30.254,"lo1":-89.0895,"lo2":-89.0443,"dy":0.0025,"dx":0.0025,"nx":19,"ny":19,"refTime":"2026-05-05T21:00:00:Z","depth":0,"parameterNumber":3,"parameterNumberName":"V-component_of_WINDS"},"data":[0,0,0,4.2329,4.2333,4.2508,4.2508,4.2727,4.2729,0,0,0,0,0,0,0,0,0,0,0,4.2277,4.2279,4.2329,4.2333,4.2507,4.2508,4.2727,4.2729,0,0,0,0,0,0,0,0,0,0,0,4.2276,4.2278,4.228,4.2334,4.2507,4.2508,4.2727,4.2596,0,0,0,0,0,0,0,0,0,0,4.2426,4.238,4.2278,4.228,4.2335,4.2507,4.2508,4.2589,4.2604,4.2647,0,4.2688,0,4.2712,4.2744,4.2745,0,0,0,4.2332,4.2368,4.2415,4.2281,4.2336,4.2507,4.2429,4.2597,4.2614,4.2666,4.2691,4.2699,4.2716,4.2745,4.2746,4.3005,4.3006,0,0,4.2323,4.2308,4.2404,4.2425,4.2401,4.2423,4.2434,4.2607,4.2633,4.2692,4.2705,4.272,4.2747,4.2748,4.3004,4.3005,0,0,0,4.2295,4.2301,4.2345,4.2416,4.2448,4.2428,4.2441,4.2625,4.264,4.2707,4.2722,4.2748,4.2751,4.3003,4.3004,4.3053,0,0,0,4.229,4.2286,4.234,4.2333,4.2445,4.2539,4.2454,4.2628,4.2648,4.2721,4.2748,4.2753,4.3001,4.3004,4.3049,4.3079,0,0,0,4.2266,4.2283,4.2308,4.2332,4.2407,4.2537,4.2562,4.2633,4.2658,4.2745,4.2753,4.3,4.3003,4.3046,4.3073,4.3144,0,0,0,4.2235,4.2348,4.2309,4.244,4.2405,4.2566,4.2561,4.2681,4.2762,4.2749,4.3001,4.3004,4.3044,4.3069,4.314,4.3202,4.3226,0,0,4.2369,4.2364,4.2442,4.2412,4.2577,4.2541,4.2712,4.2798,4.2818,4.2941,4.2947,4.3051,4.3073,4.3143,4.3366,4.3385,0,0,0,4.2479,4.2536,4.2582,4.266,4.2729,4.2791,4.2853,4.2884,4.299,4.2879,4.3095,4.3109,4.315,4.3181,4.3197,4.3234,4.3017,4.3017,4.3017,4.2648,4.267,4.28,4.2843,4.2917,4.298,4.3042,4.3095,4.3093,4.3143,4.3181,4.3314,4.3349,4.3361,4.3399,4.3214,4.3214,4.3214,4.3214,4.2847,4.293,4.2926,4.3052,4.3073,4.3177,4.3241,4.3236,4.3336,4.3287,4.3325,4.3272,4.3382,4.3416,4.3218,4.3218,4.3217,4.3217,4.3217,4.2961,4.3005,4.3042,4.3156,4.3241,4.3278,4.3374,4.3389,4.3403,4.344,4.3481,4.3481,4.3482,4.3459,4.3459,4.346,4.346,4.346,4.3461,4.3065,4.3106,4.3187,4.327,4.3322,4.3391,4.3454,4.3504,4.3563,4.3566,4.3566,4.3559,4.3389,4.3346,4.3468,4.3467,4.3466,4.3465,4.3465,4.3261,4.3219,4.3344,4.3395,4.3494,4.3577,4.3594,4.3695,4.3738,4.3785,4.377,4.3641,4.3635,4.3622,4.3587,4.3764,4.3764,4.3764,4.3765,4.3358,4.3356,4.3488,4.3569,4.3651,4.3679,4.3817,4.3867,4.391,4.3938,4.3914,4.3868,4.3854,4.3857,4.3839,4.3807,4.4036,4.4036,4.4037,4.348,4.3487,4.3604,4.3648,4.3726,4.3792,4.3923,4.4015,4.4055,4.4048,4.396,4.3949,4.3875,4.385,4.3842,4.3813,4.3754,0,0]}]]